Date,TemperatureHighF,TemperatureAvgF,TemperatureLowF,DewpointHighF,DewpointAvgF,DewpointLowF,HumidityHigh,HumidityAvg,HumidityLow,PressureMaxIn,PressureMinIn,WindSpeedMaxMPH,WindSpeedAvgMPH,GustSpeedMaxMPH,PrecipitationSumIn
2013-2-1,71,56,44,44,35,26,70,46,31,29.68,29.46,18,2,18,0.00
2013-2-2,77,61,49,55,45,36,78,58,42,29.63,29.48,19,1,19,0.00
2013-2-3,70,59,46,47,41,34,73,54,30,29.67,29.31,15,2,15,0.00
2013-2-4,76,64,56,58,52,47,80,67,50,29.31,29.10,18,2,18,0.02
2013-2-5,77,62,50,53,47,44,82,60,37,29.32,29.18,6,1,97,0.00
2013-2-6,74,64,59,60,54,48,81,70,56,29.30,29.11,36,2,36,0.24
2013-2-7,84,68,60,63,53,40,85,62,29,29.42,29.16,21,3,21,0.00
2013-2-8,69,59,51,44,34,26,61,40,22,29.56,29.40,16,2,16,0.00
2013-2-9,67,58,53,63,51,29,91,78,38,29.41,29.06,16,3,18,0.00
2013-2-10,69,62,55,63,45,32,88,58,30,29.33,29.03,12,1,22,0.52
2013-2-11,58,56,53,49,45,41,81,69,56,29.46,29.29,11,1,13,0.06
2013-2-12,73,59,51,56,45,26,97,66,23,29.40,29.13,21,3,25,0.00
2013-2-13,65,55,48,41,36,28,75,50,29,29.50,29.34,15,1,15,0.00
2013-2-14,73,59,50,47,39,32,85,52,25,29.45,29.28,11,1,11,0.00
2013-2-15,61,55,50,41,33,13,69,46,21,29.72,29.37,14,1,14,0.00
2013-2-16,68,60,52,57,35,24,78,43,23,29.77,29.50,72,1,72,0.00
2013-2-17,69,59,53,49,40,31,66,50,33,29.51,29.25,19,2,19,0.00
2013-2-18,82,68,58,56,43,23,75,48,18,29.42,29.13,22,4,79,0.00
2013-2-19,65,59,52,34,26,19,48,30,19,29.59,29.39,19,5,21,0.00
2013-2-20,62,57,55,61,44,22,99,67,26,29.42,28.94,19,8,21,0.00
2013-2-21,77,66,55,63,41,16,96,48,16,29.18,28.88,24,4,24,0.00
2013-2-22,64,57,53,44,32,22,65,41,27,29.41,29.15,14,2,14,0.00
2013-2-23,73,61,55,48,33,21,65,36,21,29.41,29.19,11,1,13,0.00
2013-2-24,75,64,56,57,48,34,80,59,38,29.24,28.88,16,3,17,0.00
2013-2-25,65,60,56,58,30,13,82,37,16,29.19,28.86,25,9,57,0.00
2013-2-26,70,62,58,43,29,19,45,29,19,29.29,29.14,22,2,57,0.00
2013-2-27,68,62,58,33,22,3,37,23,10,29.57,29.16,22,4,24,0.00
2013-2-28,71,65,60,48,23,5,47,23,10,29.68,29.51,14,2,20,0.00